Weather reports worldwide

Advertisment
San Jose, ca, United States of America (2074876): temperature & dewpoint: 19.02.2020 01:00:00 - 25.02.2020 01:00:00 (PST)San Jose, ca, United States of America (2074876): wind speed: 19.02.2020 01:00:00 - 25.02.2020 01:00:00 (PST)San Jose, ca, United States of America (2074876): wind direction: 19.02.2020 01:00:00 - 25.02.2020 01:00:00 (PST)San Jose, ca, United States of America (2074876): reduced air pressure: 19.02.2020 01:00:00 - 25.02.2020 01:00:00 (PST)San Jose, ca, United States of America (2074876): visibility: 19.02.2020 01:00:00 - 25.02.2020 01:00:00 (PST)
Date & Time tt [°C] td [°C] ff [km/h] ff [kn] dd ppp [hPa] vv [km]
25.02.2020 01:00:00 8,9 5,6 0 0 N 1025,2 16
25.02.2020 00:00:00 10,6 7,2 0 0 N 1025,2 16
24.02.2020 23:00:00 11,7 7,8 0 0 N 1025,6 16
24.02.2020 22:00:00 12,8 8,3 8 4 N 1025,9 16
24.02.2020 21:00:00 11,7 6,1 9 5 WNW 1025,6 16
24.02.2020 20:00:00 12,8 5,0 9 5 WNW 1025,3 16
24.02.2020 19:00:00 15,6 3,9 11 6 NNW 1025,0 16
24.02.2020 18:00:00 17,2 4,4 18 10 NNW 1024,5 16
24.02.2020 17:00:00 19,4 5,0 18 10 NNW 1024,6 16
24.02.2020 16:00:00 20,6 3,3 15 8 NW 1024,9 16
24.02.2020 15:00:00 20,6 4,4 21 11 NW 1025,5 16
24.02.2020 14:00:00 20,0 7,2 18 10 NNW 1025,9 16
24.02.2020 13:00:00 18,9 7,8 16 9 N 1026,6 16
24.02.2020 12:00:00 17,2 8,3 9 5 NNW 1027,8 16
24.02.2020 11:00:00 15,0 8,9 13 7 NNW 1028,8 16
24.02.2020 10:00:00 12,2 8,3 9 5 NNW 1029,4 13
24.02.2020 09:00:00 10,6 8,3 9 5 N 1029,7 13
24.02.2020 08:00:00 9,4 8,3 0 0 N 1029,1 8
24.02.2020 07:00:00 9,4 8,3 0 0 N 1029,0 13
24.02.2020 06:00:00 8,3 6,1 0 0 N 1028,5 13
24.02.2020 05:00:00 7,2 5,6 0 0 N 1028,1 16
24.02.2020 04:00:00 7,8 5,6 0 0 N 1027,9 16
24.02.2020 03:00:00 8,3 5,6 0 0 N 1028,2 16
24.02.2020 02:00:00 8,9 6,1 0 0 N 1028,5 16
24.02.2020 01:00:00 8,3 6,1 0 0 N 1028,7 16
24.02.2020 00:00:00 10,6 8,3 0 0 N 1029,0 16
23.02.2020 23:00:00 10,0 8,3 0 0 N 1029,1 16
23.02.2020 22:00:00 11,1 8,3 8 4 N 1029,0 16
23.02.2020 21:00:00 11,1 7,8 11 6 NNW 1028,4 16
23.02.2020 20:00:00 11,7 7,8 11 6 NNW 1028,0 16
23.02.2020 19:00:00 12,8 7,8 13 7 N 1027,9 16
23.02.2020 18:00:00 13,9 7,8 16 9 N 1027,5 16
23.02.2020 17:00:00 15,0 7,8 15 8 N 1027,5 16
23.02.2020 16:00:00 16,1 7,8 15 8 N 1027,4 16
23.02.2020 15:00:00 15,6 7,8 5 3 - 1027,6 16
23.02.2020 14:00:00 15,6 7,2 15 8 NW 1027,5 16
23.02.2020 13:00:00 14,4 6,7 9 5 NW 1027,8 16
23.02.2020 12:00:00 15,6 7,2 11 6 NNW 1028,8 16
23.02.2020 11:00:00 12,8 6,1 5 3 NNE 1028,8 16
23.02.2020 10:00:00 12,2 6,7 0 0 N 1028,4 16
23.02.2020 09:00:00 10,6 6,7 5 3 S 1027,7 16
23.02.2020 08:00:00 9,4 6,1 9 5 S 1026,7 16
23.02.2020 07:00:00 8,9 5,6 5 3 S 1025,7 16
23.02.2020 06:00:00 7,8 5,0 0 0 N 1024,7 16
23.02.2020 05:00:00 8,9 5,6 0 0 N 1024,0 16
23.02.2020 04:00:00 9,4 6,1 11 6 NW 1023,6 16
23.02.2020 03:00:00 8,9 5,6 8 4 W 1023,5 16
23.02.2020 02:00:00 9,4 5,6 0 0 N 1022,6 16
23.02.2020 01:00:00 10,0 6,1 0 0 N 1022,2 16
23.02.2020 00:00:00 9,4 6,1 8 4 NNW 1022,1 16
22.02.2020 23:00:00 11,1 7,2 8 4 W 1022,0 16
22.02.2020 22:00:00 11,1 7,2 0 0 N 1021,4 16
22.02.2020 21:00:00 11,1 7,2 8 4 NNE 1020,5 16
22.02.2020 20:00:00 10,6 6,7 9 5 N 1019,4 16
22.02.2020 19:00:00 11,1 7,2 18 10 N 1018,6 16
22.02.2020 18:00:00 12,2 7,2 21 11 NNW 1017,8 15
22.02.2020 17:00:00 13,9 7,2 26 14 NNW 1017,1 16
22.02.2020 16:00:00 15,6 7,8 26 14 N 1016,6 16
22.02.2020 15:00:00 16,7 8,9 28 15 N 1016,2 16
22.02.2020 14:00:00 17,8 8,9 26 14 NNW 1016,0 16
22.02.2020 13:00:00 18,9 8,9 18 10 NNW 1016,3 16
22.02.2020 12:00:00 19,4 8,3 15 8 SSW 1016,8 16
22.02.2020 11:00:00 18,3 7,8 24 13 S 1016,8 16
22.02.2020 10:00:00 16,7 7,2 16 9 SE 1016,9 16
22.02.2020 09:00:00 14,4 6,7 21 11 SSE 1016,6 16
22.02.2020 08:00:00 12,8 5,0 11 6 SSE 1015,8 16
22.02.2020 07:00:00 12,2 5,0 13 7 SSE 1014,9 16
22.02.2020 06:00:00 13,3 5,0 5 3 SSW 1014,5 16
22.02.2020 05:00:00 13,3 5,0 8 4 WSW 1013,9 16
22.02.2020 04:00:00 13,9 4,4 5 3 - 1013,4 16
22.02.2020 03:00:00 13,9 3,9 0 0 N 1013,3 16
22.02.2020 02:00:00 13,9 4,4 0 0 N 1014,5 16
22.02.2020 01:00:00 15,0 4,4 15 8 ESE 1015,2 10
22.02.2020 00:00:00 14,4 4,4 5 3 ESE 1014,3 16
21.02.2020 23:00:00 15,0 4,4 0 0 N 1014,8 16
21.02.2020 22:00:00 15,6 4,4 0 0 N 1015,1 16
21.02.2020 21:00:00 16,7 4,4 0 0 N 1014,5 16
21.02.2020 20:00:00 17,2 3,9 0 0 N 1014,4 16
21.02.2020 19:00:00 17,8 3,9 9 5 SE 1014,4 16
21.02.2020 18:00:00 18,3 2,8 8 4 NW 1014,1 16
21.02.2020 17:00:00 18,9 3,9 5 3 - 1014,4 16
21.02.2020 16:00:00 18,9 4,4 15 8 NNW 1014,1 16
21.02.2020 15:00:00 18,9 3,3 0 0 N 1015,0 16
21.02.2020 14:00:00 18,3 5,0 8 4 WNW 1015,8 16
21.02.2020 13:00:00 18,3 5,0 8 4 NW 1016,9 16
21.02.2020 12:00:00 18,3 6,1 5 3 - 1018,0 16
21.02.2020 11:00:00 16,1 7,2 9 5 NNW 1018,7 16
21.02.2020 10:00:00 12,8 7,2 5 3 W 1019,4 16
21.02.2020 09:00:00 10,0 4,4 0 0 N 1019,6 16
21.02.2020 08:00:00 8,9 4,4 0 0 N 1019,4 16
21.02.2020 07:00:00 8,3 3,9 0 0 N 1019,2 16
21.02.2020 06:00:00 7,2 3,3 0 0 N 1018,9 16
21.02.2020 05:00:00 8,9 4,4 0 0 N 1018,7 16
21.02.2020 04:00:00 9,4 4,4 0 0 N 1018,6 16
21.02.2020 03:00:00 9,4 3,9 0 0 N 1018,7 16
21.02.2020 02:00:00 10,0 4,4 0 0 N 1018,9 16
21.02.2020 01:00:00 11,1 5,0 0 0 N 1019,0 16
21.02.2020 00:00:00 12,2 5,0 0 0 N 1019,4 16
20.02.2020 23:00:00 12,8 4,4 5 3 SSW 1019,4 16
20.02.2020 22:00:00 13,9 4,4 0 0 N 1019,6 16
20.02.2020 21:00:00 14,4 3,9 8 4 SW 1019,2 16
20.02.2020 20:00:00 16,1 3,3 0 0 N 1018,8 16
20.02.2020 19:00:00 15,6 2,2 8 4 WNW 1018,6 16
20.02.2020 18:00:00 15,6 3,9 15 8 NNW 1018,0 16
20.02.2020 17:00:00 17,8 5,0 16 9 NNW 1017,8 16
20.02.2020 16:00:00 20,0 3,3 15 8 NW 1017,9 16
20.02.2020 15:00:00 20,6 2,8 9 5 N 1018,0 16
20.02.2020 14:00:00 19,4 2,8 9 5 NNW 1018,5 16
20.02.2020 13:00:00 18,3 3,9 5 3 N 1019,5 16
20.02.2020 12:00:00 16,1 3,9 0 0 N 1020,7 16
20.02.2020 11:00:00 14,4 3,9 5 3 WNW 1021,3 16
20.02.2020 10:00:00 12,2 3,3 0 0 N 1021,3 16
20.02.2020 09:00:00 10,0 3,3 5 3 S 1021,3 16
20.02.2020 08:00:00 7,8 3,3 5 3 SE 1021,0 16
20.02.2020 07:00:00 6,1 1,7 0 0 N 1020,2 16
20.02.2020 06:00:00 5,6 1,7 8 4 ESE 1019,4 16
20.02.2020 05:00:00 5,6 1,7 9 5 SSE 1019,0 16
20.02.2020 04:00:00 7,2 1,7 5 3 S 1019,1 16
20.02.2020 03:00:00 7,8 2,2 8 4 E 1019,4 16
20.02.2020 02:00:00 7,8 2,2 5 3 S 1019,4 16
20.02.2020 01:00:00 9,4 3,3 5 3 ESE 1019,6 16
20.02.2020 00:00:00 10,0 3,3 0 0 N 1019,7 16
19.02.2020 23:00:00 10,6 5,0 0 0 N 1019,7 16
19.02.2020 22:00:00 11,1 7,2 5 3 NW 1019,4 16
19.02.2020 21:00:00 11,1 7,2 5 3 NNW 1018,9 16
19.02.2020 20:00:00 12,2 7,2 9 5 NW 1018,5 16
19.02.2020 19:00:00 13,3 6,7 9 5 NNW 1018,4 16
19.02.2020 18:00:00 15,0 2,2 16 9 NW 1018,0 16
19.02.2020 17:00:00 17,8 3,3 13 7 NNW 1017,7 16
19.02.2020 16:00:00 18,9 1,1 15 8 NNW 1017,9 16
19.02.2020 15:00:00 19,4 1,7 13 7 NW 1017,9 16
19.02.2020 14:00:00 18,3 2,8 5 3 - 1018,4 16
19.02.2020 13:00:00 17,2 4,4 0 0 N 1019,0 16
19.02.2020 12:00:00 15,6 5,0 9 5 WNW 1020,2 16
19.02.2020 11:00:00 13,3 5,0 5 3 WNW 1020,7 16
19.02.2020 10:00:00 10,6 4,4 0 0 N 1021,1 16
19.02.2020 09:00:00 8,9 2,8 0 0 N 1021,2 16
19.02.2020 08:00:00 6,1 1,7 0 0 N 1020,2 16
19.02.2020 07:00:00 5,0 0,0 0 0 N 1019,4 16
19.02.2020 06:00:00 5,6 0,0 5 3 SSE 1018,9 16
19.02.2020 05:00:00 5,0 0,0 5 3 SE 1019,0 16
19.02.2020 04:00:00 6,1 0,0 0 0 N 1018,7 16
19.02.2020 03:00:00 6,1 0,0 5 3 SSE 1018,7 16
19.02.2020 02:00:00 6,1 0,0 5 3 S 1018,5 16
19.02.2020 01:00:00 8,9 0,0 0 0 N 1018,5 16

tt = temperature
td = dewpoint
ff = wind speed
dd = wind direction
ppp = reduced air pressure
vv = visibility

Next stations